CW1020 Weather Reports


Display with metric or nautical units.
time (UTC)temp
F
wind
direction
speed
MPH
gust
MPH
rain 1hr
in
rain 24hr
in
rain mn
in
humidity
%
barometer
mb
20210305160534 52 9 3.0 5.0 0.00 0.00 0.00 32 1025.3
20210305160038 52 30 2.0 4.0 0.00 0.00 0.00 33 1025.3
20210305155738 51 290 2.0 4.0 0.00 0.00 0.00 33 1025.3
20210305155146 51 282 2.0 4.0 0.00 0.00 0.00 34 1025.3
20210305154533 50 119 1.0 7.0 0.00 0.00 0.00 34 1025.4
20210305154037 49 111 3.0 7.0 0.00 0.00 0.00 35 1025.3
20210305153528 48 136 3.0 7.0 0.00 0.00 0.00 35 1025.3
20210305153157 47 117 4.0 6.0 0.00 0.00 0.00 37 1025.2
20210305153030 47 169 3.0 6.0 0.00 0.00 0.00 37 1025.2
20210305152540 46 177 3.0 7.0 0.00 0.00 0.00 37 1025.2
20210305151527 45 124 4.0 6.0 0.00 0.00 0.00 38 1025.2
20210305151049 44 175 4.0 7.0 0.00 0.00 0.00 39 1025.2
20210305150535 44 158 4.0 7.0 0.00 0.00 0.00 40 1025.1
20210305150117 43 150 4.0 7.0 0.00 0.00 0.00 40 1025.1
20210305145849 43 154 2.0 6.0 0.00 0.00 0.00 40 1025.1
20210305145404 43 198 4.0 6.0 0.00 0.00 0.00 41 1025.1
20210305144555 42 214 3.0 5.0 0.00 0.00 0.00 41 1025.1
20210305144107 42 214 2.0 5.0 0.00 0.00 0.00 42 1025.1
20210305143537 41 213 3.0 6.0 0.00 0.00 0.00 42 1025.1
20210305143037 41 211 4.0 6.0 0.00 0.00 0.00 43 1025.0
20210305142804 40 232 3.0 7.0 0.00 0.00 0.00 43 1025.0
20210305142125 40 221 5.0 7.0 0.00 0.00 0.00 44 1025.0
20210305141529 40 225 4.0 5.0 0.00 0.00 0.00 44 1025.0
20210305141032 40 223 4.0 5.0 0.00 0.00 0.00 44 1025.0
20210305140533 40 214 4.0 6.0 0.00 0.00 0.00 44 1025.0
20210305140257 40 214 4.0 6.0 0.00 0.00 0.00 44 1025.1
20210305140056 40 223 3.0 5.0 0.00 0.00 0.00 44 1025.1
20210305135520 40 212 2.0 4.0 0.00 0.00 0.00 44 1025.1
20210305134544 39 163 0.0 5.0 0.00 0.00 0.00 45 1025.0
20210305134037 39 160 2.0 5.0 0.00 0.00 0.00 45 1025.0
20210305133538 39 158 1.0 3.0 0.00 0.00 0.00 45 1025.0
20210305133051 39 158 1.0 3.0 0.00 0.00 0.00 45 1025.1
20210305132857 39 158 2.0 3.0 0.00 0.00 0.00 45 1025.0
20210305132244 39 133 1.0 3.0 0.00 0.00 0.00 46 1025.0
20210305131544 38 132 2.0 7.0 0.00 0.00 0.00 46 1024.9
20210305131038 38 133 4.0 7.0 0.00 0.00 0.00 46 1024.9
20210305130616 38 117 5.0 10.0 0.00 0.00 0.00 46 1025.0
20210305130305 38 132 7.0 11.0 0.00 0.00 0.00 46 1025.0
20210305130025 38 134 6.0 11.0 0.00 0.00 0.00 46 1025.0
20210305125413 38 122 8.0 9.0 0.00 0.00 0.00 46 1025.0
20210305124539 38 115 6.0 10.0 0.00 0.00 0.00 46 1025.0
20210305124030 38 120 6.0 9.0 0.00 0.00 0.00 46 1025.0
20210305123624 38 121 5.0 9.0 0.00 0.00 0.00 46 1025.0
20210305123350 37 115 2.0 6.0 0.00 0.00 0.00 47 1025.1
20210305122626 37 122 1.0 4.0 0.00 0.00 0.00 47 1025.0
20210305121538 37 122 2.0 4.0 0.00 0.00 0.00 47 1025.0
20210305121042 38 122 1.0 3.0 0.00 0.00 0.00 47 1025.0
20210305120557 38 122 0.0 4.0 0.00 0.00 0.00 46 1025.0
20210305120044 38 121 2.0 4.0 0.00 0.00 0.00 46 1025.0
20210305115923 38 124 2.0 4.0 0.00 0.00 0.00 47 1025.0
20210305115534 38 125 0.0 6.0 0.00 0.00 0.00 47 1024.9
20210305114534 38 98 1.0 6.0 0.00 0.00 0.00 47 1025.0
20210305114027 38 98 0.0 6.0 0.00 0.00 0.00 47 1025.0
20210305113552 38 138 1.0 6.0 0.00 0.00 0.00 46 1025.0
20210305113120 38 165 3.0 6.0 0.00 0.00 0.00 46 1025.0
20210305112822 38 123 1.0 7.0 0.00 0.00 0.00 46 1025.0
20210305112255 38 122 1.0 7.0 0.00 0.00 0.00 46 1025.0
20210305111546 38 127 2.0 4.0 0.00 0.00 0.00 46 1025.0
20210305111036 38 179 0.0 0.0 0.00 0.00 0.00 46 1025.1
20210305110534 38 180 0.0 2.0 0.00 0.00 0.00 46 1025.1
20210305110051 38 180 0.0 2.0 0.00 0.00 0.00 46 1025.1
20210305105928 38 212 0.0 3.0 0.00 0.00 0.00 46 1025.1
20210305105443 38 212 0.0 3.0 0.00 0.00 0.00 46 1025.1
20210305104528 38 212 1.0 4.0 0.00 0.00 0.00 47 1025.2
20210305104036 38 211 2.0 4.0 0.00 0.00 0.00 47 1025.1
20210305103530 37 123 1.0 4.0 0.00 0.00 0.00 48 1025.2
20210305103115 37 235 2.0 4.0 0.00 0.00 0.00 48 1025.3
20210305102747 37 234 2.0 4.0 0.00 0.00 0.00 48 1025.3
20210305102213 37 234 1.0 4.0 0.00 0.00 0.00 48 1025.3
20210305101546 37 233 3.0 4.0 0.00 0.00 0.00 48 1025.4
20210305101052 37 172 2.0 5.0 0.00 0.00 0.00 48 1025.4
20210305100529 37 172 2.0 5.0 0.00 0.00 0.00 48 1025.4
20210305100140 37 172 4.0 5.0 0.00 0.00 0.00 47 1025.5
20210305095841 37 216 3.0 7.0 0.00 0.00 0.00 47 1025.5
20210305095222 38 206 3.0 7.0 0.00 0.00 0.00 47 1025.6
20210305094528 38 214 3.0 5.0 0.00 0.00 0.00 46 1025.7
20210305094030 38 167 1.0 5.0 0.00 0.00 0.00 46 1025.6
20210305093527 38 167 2.0 5.0 0.00 0.00 0.00 46 1025.7
20210305093048 38 166 2.0 5.0 0.00 0.00 0.00 46 1025.7
20210305092816 38 169 3.0 5.0 0.00 0.00 0.00 46 1025.8
20210305092421 38 169 0.0 3.0 0.00 0.00 0.00 45 1025.8
20210305091527 38 169 1.0 3.0 0.00 0.00 0.00 45 1025.8
20210305091034 38 169 0.0 3.0 0.00 0.00 0.00 46 1025.9
20210305090528 38 168 0.0 2.0 0.00 0.00 0.00 46 1025.9
20210305090042 38 169 1.0 5.0 0.00 0.00 0.00 46 1025.9
20210305085751 38 169 2.0 5.0 0.00 0.00 0.00 46 1025.9
20210305085255 38 169 2.0 5.0 0.00 0.00 0.00 46 1026.0
20210305084526 38 182 4.0 6.0 0.00 0.00 0.00 47 1026.0
20210305084040 38 172 3.0 6.0 0.00 0.00 0.00 47 1025.9
20210305083528 38 165 2.0 6.0 0.00 0.00 0.00 47 1026.0
20210305083129 38 194 3.0 6.0 0.00 0.00 0.00 47 1025.9
20210305082912 37 200 3.0 6.0 0.00 0.00 0.00 47 1026.0
20210305082435 37 185 4.0 5.0 0.00 0.00 0.00 47 1026.0
20210305081537 38 164 3.0 5.0 0.00 0.00 0.00 47 1026.0
20210305081032 38 163 3.0 5.0 0.00 0.00 0.00 47 1026.0
20210305080532 37 163 2.0 4.0 0.00 0.00 0.00 48 1026.1
20210305080058 37 163 2.0 5.0 0.00 0.00 0.00 49 1026.0
20210305075931 36 163 3.0 7.0 0.00 0.00 0.00 50 1026.1
20210305075547 36 162 4.0 7.0 0.00 0.00 0.00 50 1026.1
20210305074534 37 155 5.0 7.0 0.00 0.00 0.00 50 1026.0
20210305074038 36 174 7.0 8.0 0.00 0.00 0.00 50 1026.0
20210305073537 36 169 5.0 6.0 0.00 0.00 0.00 51 1026.1
20210305073031 37 169 5.0 6.0 0.00 0.00 0.00 51 1026.2
20210305072825 37 167 5.0 6.0 0.00 0.00 0.00 50 1026.2
20210305072258 37 165 4.0 6.0 0.00 0.00 0.00 50 1026.2
20210305071531 37 163 4.0 6.0 0.00 0.00 0.00 51 1026.3
20210305071029 37 163 4.0 7.0 0.00 0.00 0.00 51 1026.3
20210305070531 37 163 6.0 8.0 0.00 0.00 0.00 51 1026.4
20210305070126 37 155 6.0 8.0 0.00 0.00 0.00 50 1026.5
20210305065831 37 174 5.0 6.0 0.00 0.00 0.00 51 1026.5
20210305065215 37 174 327.0 7.0 0.00 0.00 0.00 52 1026.6
20210305064022 37 176 5.0 7.0 0.00 0.00 0.00 53 1026.6
20210305063522 37 179 5.0 7.0 0.00 0.00 0.00 52 1026.6
20210305063130 37 176 5.0 7.0 0.00 0.00 0.00 52 1026.6
20210305062936 38 167 6.0 8.0 0.00 0.00 0.00 55 1026.6
20210305062440 38 166 6.0 8.0 0.00 0.00 0.00 55 1026.7
20210305061528 38 173 3.0 5.0 0.00 0.00 0.00 54 1026.7
20210305061025 39 173 4.0 5.0 0.00 0.00 0.00 52 1026.7
20210305060529 39 173 4.0 6.0 0.00 0.00 0.00 58 1026.7
20210305060035 37 173 6.0 7.0 0.00 0.00 0.00 57 1026.8
20210305055831 37 176 5.0 8.0 0.00 0.00 0.00 57 1026.8
20210305055158 37 171 6.0 8.0 0.00 0.00 0.00 57 1026.9
20210305054546 37 176 5.0 8.0 0.00 0.00 0.00 58 1026.9
20210305054028 37 175 6.0 8.0 0.00 0.00 0.00 58 1026.9
20210305053528 38 183 5.0 6.0 0.00 0.00 0.00 57 1026.8
20210305053034 38 177 5.0 6.0 0.00 0.00 0.00 55 1026.9
20210305052806 38 178 4.0 5.0 0.00 0.00 0.00 56 1026.8
20210305052205 39 178 2.0 5.0 0.00 0.00 0.00 56 1026.8
20210305051526 39 178 4.0 5.0 0.00 0.00 0.00 54 1026.7
20210305051028 39 178 3.0 5.0 0.00 0.00 0.00 53 1026.7
20210305050529 40 178 4.0 5.0 0.00 0.00 0.00 52 1026.7
20210305050025 40 180 3.0 4.0 0.00 0.00 0.00 52 1026.6
20210305045818 40 180 3.0 4.0 0.00 0.00 0.00 51 1026.6
20210305045237 40 179 3.0 5.0 0.00 0.00 0.00 50 1026.6
20210305044523 40 178 3.0 6.0 0.00 0.00 0.00 49 1026.6
20210305044032 41 177 4.0 6.0 0.00 0.00 0.00 49 1026.6
20210305043543 41 163 5.0 7.0 0.00 0.00 0.00 48 1026.6
20210305043118 41 160 6.0 7.0 0.00 0.00 0.00 49 1026.6
20210305042908 42 182 3.0 5.0 0.00 0.00 0.00 49 1026.5
20210305042219 42 189 2.0 6.0 0.00 0.00 0.00 49 1026.5
20210305041530 42 188 4.0 7.0 0.00 0.00 0.00 48 1026.4
20210305041035 42 192 4.0 8.0 0.00 0.00 0.00 47 1026.4
20210305040545 43 186 5.0 8.0 0.00 0.00 0.00 47 1026.3
20210305040257 43 190 5.0 7.0 0.00 0.00 0.00 47 1026.3
20210305040125 44 186 6.0 8.0 0.00 0.00 0.00 47 1026.2
20210305035855 44 184 6.0 8.0 0.00 0.00 0.00 47 1026.2
20210305034642 44 176 5.0 6.0 0.00 0.00 0.00 46 1026.2
20210305034048 45 181 5.0 7.0 0.00 0.00 0.00 46 1026.1
20210305033534 45 181 5.0 7.0 0.00 0.00 0.00 45 1026.1
20210305033041 46 175 5.0 7.0 0.00 0.00 0.00 44 1026.0
20210305032628 46 183 5.0 8.0 0.00 0.00 0.00 45 1026.0
20210305032120 46 174 7.0 8.0 0.00 0.00 0.00 45 1025.9
20210305031523 47 180 5.0 6.0 0.00 0.00 0.00 46 1025.9
20210305031034 47 190 3.0 5.0 0.00 0.00 0.00 46 1025.9
20210305030535 48 198 3.0 5.0 0.00 0.00 0.00 46 1025.8
20210305030101 48 197 1.0 6.0 0.00 0.00 0.00 45 1025.7
20210305025928 49 201 3.0 5.0 0.00 0.00 0.00 45 1025.7
20210305025403 49 294 0.0 4.0 0.00 0.00 0.00 44 1025.7
20210305024527 49 328 1.0 3.0 0.00 0.00 0.00 43 1025.7
20210305024029 50 328 1.0 3.0 0.00 0.00 0.00 43 1025.6
20210305023523 50 328 1.0 3.0 0.00 0.00 0.00 43 1025.5
20210305023022 50 328 2.0 3.0 0.00 0.00 0.00 43 1025.5
20210305022852 50 329 0.0 2.0 0.00 0.00 0.00 43 1025.5
20210305022155 51 329 0.0 4.0 0.00 0.00 0.00 43 1025.4
20210305021601 51 329 0.0 11.0 0.00 0.00 0.00 43 1025.3
20210305021027 51 328 4.0 11.0 0.00 0.00 0.00 43 1025.2
20210305020527 51 325 6.0 9.0 0.00 0.00 0.00 43 1025.1
20210305020125 51 340 5.0 10.0 0.00 0.00 0.00 43 1025.1
20210305015900 51 333 6.0 10.0 0.00 0.00 0.00 43 1025.1
20210305015239 52 329 5.0 9.0 0.00 0.00 0.00 42 1025.0
20210305014543 52 333 6.0 10.0 0.00 0.00 0.00 41 1025.0
20210305014032 53 323 7.0 10.0 0.00 0.00 0.00 40 1024.9
20210305013524 54 327 6.0 10.0 0.00 0.00 0.00 38 1024.9
20210305013124 55 336 2.0 9.0 0.00 0.00 0.00 36 1024.8
20210305012901 56 339 5.0 9.0 0.00 0.00 0.00 34 1024.8
20210305012312 59 322 6.0 9.0 0.00 0.00 0.00 30 1024.8
20210305011540 62 27 3.0 9.0 0.00 0.00 0.00 28 1024.8
20210305011030 63 73 7.0 11.0 0.00 0.00 0.00 18 1024.8
20210305010535 63 92 6.0 12.0 0.00 0.00 0.00 18 1024.7
20210305010038 63 121 8.0 13.0 0.00 0.00 0.00 18 1024.7
20210305005822 64 117 7.0 12.0 0.00 0.00 0.00 18 1024.7
20210305005356 64 121 9.0 14.0 0.00 0.00 0.00 18 1024.7
20210305004550 64 126 8.0 14.0 0.00 0.00 0.00 18 1024.6
20210305004029 65 127 8.0 12.0 0.00 0.00 0.00 18 1024.6
20210305003537 65 119 6.0 14.0 0.00 0.00 0.00 18 1024.6
20210305003103 65 117 9.0 15.0 0.00 0.00 0.00 17 1024.5
20210305002814 65 128 10.0 15.0 0.00 0.00 0.00 17 1024.5
20210305002243 65 128 7.0 13.0 0.00 0.00 0.00 17 1024.5
20210305001533 65 127 8.0 17.0 0.00 0.00 0.00 17 1024.5
20210305001029 66 132 9.0 17.0 0.00 0.00 0.00 17 1024.5
20210305000659 66 131 6.0 15.0 0.00 0.00 0.00 17 1024.5
20210305000025 66 122 8.0 15.0 0.00 0.00 0.00 16 1024.5
20210304235448 66 140 7.0 15.0 0.00 0.00 0.00 17 1024.5
20210304234551 66 99 10.0 16.0 0.00 0.00 0.00 17 1024.5
20210304234024 66 123 10.0 17.0 0.00 0.00 0.00 17 1024.5
20210304233541 66 144 10.0 17.0 0.00 0.00 0.00 17 1024.5
20210304233213 66 133 11.0 18.0 0.00 0.00 0.00 17 1024.4
20210304233029 66 131 10.0 18.0 0.00 0.00 0.00 17 1024.4
20210304232528 67 74 10.0 15.0 0.00 0.00 0.00 17 1024.4
20210304231537 66 130 10.0 18.0 0.00 0.00 0.00 17 1024.3
20210304231043 66 130 12.0 18.0 0.00 0.00 0.00 17 1024.2
20210304230545 66 130 9.0 17.0 0.00 0.00 0.00 18 1024.2
20210304230144 66 133 12.0 17.0 0.00 0.00 0.00 17 1024.2
20210304225950 66 130 13.0 20.0 0.00 0.00 0.00 17 1024.2
20210304225310 66 136 17.0 26.0 0.00 0.00 0.00 17 1024.1
20210304224542 66 157 14.0 26.0 0.00 0.00 0.00 18 1024.1
20210304224028 67 127 14.0 18.0 0.00 0.00 0.00 18 1024.1
20210304223536 67 134 12.0 19.0 0.00 0.00 0.00 17 1024.1
20210304223130 67 117 10.0 19.0 0.00 0.00 0.00 18 1024.1
20210304222839 67 131 8.0 19.0 0.00 0.00 0.00 18 1024.0
20210304222250 67 134 13.0 19.0 0.00 0.00 0.00 18 1024.0
20210304221526 67 101 12.0 18.0 0.00 0.00 0.00 18 1024.0
20210304221033 67 98 13.0 18.0 0.00 0.00 0.00 18 1023.9
20210304220523 67 121 7.0 21.0 0.00 0.00 0.00 19 1024.0
20210304220220 66 88 13.0 21.0 0.00 0.00 0.00 20 1023.9
20210304220057 65 113 10.0 17.0 0.00 0.00 0.00 21 1024.0
20210304215639 64 155 4.0 11.0 0.00 0.00 0.00 28 1024.0
20210304214542 63 52 2.0 14.0 0.00 0.00 0.00 30 1024.0
20210304214048 64 74 10.0 14.0 0.00 0.00 0.00 28 1023.9
20210304213556 63 82 5.0 12.0 0.00 0.00 0.00 28 1023.8
20210304213051 63 261 2.0 14.0 0.00 0.00 0.00 26 1023.9
20210304212835 62 22 7.0 14.0 0.00 0.00 0.00 26 1024.0
20210304212330 62 78 4.0 11.0 0.00 0.00 0.00 28 1023.9
20210304211530 61 355 5.0 11.0 0.00 0.00 0.00 27 1024.0
20210304211034 61 327 4.0 11.0 0.00 0.00 0.00 30 1024.1
20210304210522 61 316 7.0 10.0 0.00 0.00 0.00 31 1024.0
20210304210023 61 350 6.0 9.0 0.00 0.00 0.00 30 1024.1
20210304205902 61 23 4.0 11.0 0.00 0.00 0.00 28 1024.1
20210304205515 60 20 6.0 13.0 0.00 0.00 0.00 29 1024.1
20210304204555 61 340 8.0 12.0 0.00 0.00 0.00 30 1024.1
20210304204037 60 295 5.0 9.0 0.00 0.00 0.00 30 1024.1
20210304203708 60 309 2.0 8.0 0.00 0.00 0.00 30 1024.3
20210304203410 59 329 4.0 15.0 0.00 0.00 0.00 33 1024.4
20210304203147 59 345 9.0 15.0 0.00 0.00 0.00 34 1024.4
20210304202818 59 326 9.0 14.0 0.00 0.00 0.00 32 1024.3
20210304201559 59 332 7.0 14.0 0.00 0.00 0.00 32 1024.3
20210304201024 59 348 3.0 13.0 0.00 0.00 0.00 32 1024.4
20210304200525 58 329 7.0 14.0 0.00 0.00 0.00 33 1024.4
20210304200253 58 333 6.0 12.0 0.00 0.00 0.00 31 1024.4
20210304200036 57 309 7.0 12.0 0.00 0.00 0.00 33 1024.5
20210304195356 57 313 6.0 12.0 0.00 0.00 0.00 34 1024.5
20210304194532 57 336 9.0 12.0 0.00 0.00 0.00 34 1024.4
20210304194032 56 309 7.0 11.0 0.00 0.00 0.00 35 1024.5
20210304193542 56 355 9.0 11.0 0.00 0.00 0.00 36 1024.5
20210304193205 56 339 7.0 12.0 0.00 0.00 0.00 35 1024.6
20210304193022 55 316 6.0 12.0 0.00 0.00 0.00 35 1024.7
20210304192451 55 340 8.0 15.0 0.00 0.00 0.00 36 1024.8
20210304191535 55 321 9.0 15.0 0.00 0.00 0.00 35 1024.8
20210304191041 55 344 7.0 12.0 0.00 0.00 0.00 35 1024.8
20210304190531 55 328 8.0 12.0 0.00 0.00 0.00 35 1024.7
20210304190125 55 325 6.0 11.0 0.00 0.00 0.00 35 1024.7
20210304185910 55 327 7.0 10.0 0.00 0.00 0.00 35 1024.7
20210304185355 55 327 6.0 9.0 0.00 0.00 0.00 34 1024.7
20210304184604 55 350 2.0 5.0 0.00 0.00 0.00 35 1024.6
20210304184035 54 14 2.0 5.0 0.00 0.00 0.00 36 1024.6
20210304183528 54 348 3.0 6.0 0.00 0.00 0.00 37 1024.5
20210304183057 53 331 3.0 6.0 0.00 0.00 0.00 36 1024.5
20210304182818 53 348 2.0 6.0 0.00 0.00 0.00 37 1024.4
20210304182322 52 346 3.0 6.0 0.00 0.00 0.00 37 1024.4
20210304181544 52 336 4.0 5.0 0.00 0.00 0.00 37 1024.4
20210304181048 52 355 1.0 6.0 0.00 0.00 0.00 39 1024.4
20210304180526 51 51 4.0 6.0 0.00 0.00 0.00 40 1024.5
20210304180225 51 346 2.0 6.0 0.00 0.00 0.00 41 1024.4
20210304175912 50 19 1.0 4.0 0.00 0.00 0.00 42 1024.4
20210304175211 50 22 2.0 4.0 0.00 0.00 0.00 42 1024.5
20210304174558 49 69 3.0 4.0 0.00 0.00 0.00 43 1024.4
20210304174030 48 67 1.0 3.0 0.00 0.00 0.00 45 1024.4
20210304173544 48 346 1.0 3.0 0.00 0.00 0.00 46 1024.4
20210304173027 47 341 1.0 3.0 0.00 0.00 0.00 46 1024.4
20210304172806 46 341 1.0 3.0 0.00 0.00 0.00 49 1024.4
20210304172253 46 341 0.0 2.0 0.00 0.00 0.00 51 1024.4
20210304171557 45 341 1.0 3.0 0.00 0.00 0.00 52 1024.3
20210304171028 44 341 1.0 4.0 0.00 0.00 0.00 55 1024.3
20210304170741 44 341 2.0 5.0 0.00 0.00 0.00 57 1024.3
20210304170421 43 36 0.0 0.0 0.00 0.00 0.00 61 1024.2
20210304170155 41 232 0.0 0.0 0.00 0.00 0.00 63 1024.2
20210304165815 40 185 0.0 0.0 0.00 0.00 0.00 67 1024.3
20210304164530 39 185 0.0 0.0 0.00 0.00 0.00 69 1024.2
20210304164116 38 184 0.0 0.0 0.00 0.00 0.00 70 1024.1
20210304163522 38 184 0.0 0.0 0.00 0.00 0.00 71 1024.1
20210304163429 37 184 0.0 0.0 0.00 0.00 0.00 74 1024.0
20210304163313 36 184 0.0 0.0 0.00 0.00 0.00 77 1023.9
20210304163139 35 184 0.0 1.0 0.00 0.00 0.00 79 1023.9
20210304161602 34 184 0.0 4.0 0.00 0.00 0.00 80 1023.9
20210304161107 33 104 1.0 4.0 0.00 0.00 0.00 80 1023.9